{"data":{"norad_id":42939,"epoch":"2026-05-25T03:06:11.131200Z","epoch_age_seconds":60883,"freshness":"FRESH","line1":"1 42939U 17055A   26145.12929550  .00000048  00000+0  00000+0 0  9996","line2":"2 42939  64.0769 192.6693 0010318 239.1545 120.8151  2.13101820 67480","mean_motion":2.1310182,"eccentricity":0.0010318,"inclination_deg":64.0769,"raan_deg":192.6693,"arg_perigee_deg":239.1545,"mean_anomaly_deg":120.8151,"bstar":0,"rev_number":6748,"period_min":675.7333184672,"perigee_km":19103.582596956,"apogee_km":19156.220985806,"semimajor_km":25508.038791381,"source":"CELESTRAK","updated_at":"2026-05-25T13:38:23.894915Z"}}